Flag for Peru Weather past 2 weeks in Arequipa, Arequipa, Peru

Now
54 °F

Clear.


Feels Like: 54 °F
Forecast: 51 / 73 °F
Wind: No wind

Location: Arequipa Airport


UV Index: 7 (High)

Visibility: 10 mi


Pressure: 30.27 "Hg

Humidity: 58%

Dew point: 39 °F

Location of ArequipaLocation

Historic Weather in Arequipa

°F

Arequipa temperature yesterday

Maximum temperature yesterday: 70 °F (at 12:00 PM)
Minimum temperature yesterday: 54 °F (at 1:00 AM)
Average temperature yesterday: 60 °F

Past Weeks' High & Low Weather Summary

 TemperatureHumidityPressure
High73 °F (Apr 5, 11:00 AM)82% (Apr 10, 6:00 PM)30.36 "Hg (Apr 10, 6:00 PM)
Low48 °F (Apr 13, 4:00 AM)21% (Apr 12, 11:00 AM)30.21 "Hg (Apr 5, 2:00 PM)
Average60 °F53%30.28 "Hg
* Reported Apr 4 1:00 AM — Apr 19 1:00 AM, Arequipa, Weather by CustomWeather, © 2014

Note: Actual official high and low records may vary slightly from our data, if they occured in-between our weather recording intervals... More about our weather records

Advertising

Historic Weather Conditions — Data for Previous 24 hours

 ConditionsComfort  
Time TempWeatherWind HumidityBarometerVisibility
1:00 AM
Apr 19
55 °FClear.5 mph59%30.27 "Hg10 mi
12:00 AM55 °FClear.2 mph55%30.27 "Hg10 mi
11:00 PM
Apr 18
55 °FClear.2 mph59%30.30 "Hg10 mi
10:00 PM55 °FClear.No wind63%30.30 "Hg10 mi
9:00 PM55 °FClear.No wind63%30.30 "Hg10 mi
8:00 PM57 °FClear.No wind63%30.30 "Hg10 mi
7:00 PM57 °FClear.3 mph63%30.27 "Hg10 mi
6:00 PM59 °FPassing clouds.5 mph59%30.27 "HgN/A
5:00 PM61 °FPartly sunny.9 mph55%30.24 "HgN/A
4:00 PM64 °FPartly sunny.10 mph46%30.24 "HgN/A
3:00 PM68 °FScattered clouds.10 mph38%30.21 "HgN/A
2:00 PM68 °FScattered clouds.12 mph40%30.24 "HgN/A
1:00 PM70 °FScattered clouds.12 mph35%30.24 "HgN/A
12:00 PM70 °FScattered clouds.10 mph35%30.24 "HgN/A
11:00 AM68 °FPassing clouds.8 mph35%30.27 "HgN/A
10:00 AM66 °FScattered clouds.5 mph40%30.27 "HgN/A
9:00 AM63 °FPassing clouds.6 mph45%30.27 "HgN/A
8:00 AM61 °FSunny.No wind52%30.27 "Hg10 mi
7:00 AM55 °FSunny.No wind59%30.24 "Hg10 mi
6:00 AM54 °FSunny.No wind58%30.24 "Hg10 mi
5:00 AM55 °FClear.3 mph59%30.24 "Hg10 mi
4:00 AM54 °FClear.6 mph58%30.21 "Hg10 mi
3:00 AM54 °FClear.No wind63%30.24 "Hg10 mi
2:00 AM54 °FClear.No wind63%30.24 "Hg10 mi
Weather by CustomWeather, © 2014

See weather overview